Weather History for Peru, IL

Change the Weather History Date:

Friday, November 15, 2013

  Actual Average Record
Temperature  
Mean Temperature 40 °F -  
Max Temperature 48 °F 47 °F 72 °F (1990)
Min Temperature 33 °F 30 °F 13 °F (1976)
Degree Days  
Heating Degree Days 24    
Moisture  
Dew Point 32 °F    
Average Humidity 69    
Maximum Humidity 85    
Minimum Humidity 51    
Precipitation  
Precipitation 0.00 in - - ()
Sea Level Pressure  
Sea Level Pressure 29.96 in    
Wind  
Wind Speed 10 mph (SSW)    
Max Wind Speed 15 mph    
Max Gust Speed 21 mph    
Visibility 10 miles    
Events      
Averages and records for this station are not official NWS values.
T = Trace of Precipitation, MM = Missing Value Source: NWS Daily Summary

Daily Weather History Graph

Daily Weather History Graph

Search for Another Location

Airport:

Trip Planner

Search our weather history database for the weather conditions in past years. The results will help you decide how hot, cold, wet, or windy it might be!

Date:

Astronomy

Nov. 15, 2013 Rise Set
Actual Time 6:45 AM CST 4:36 PM CST
Civil Twilight 6:15 AM CST 5:06 PM CST
Nautical Twilight 5:42 AM CST 5:39 PM CST
Astronomical Twilight 5:09 AM CST 6:12 PM CST
Moon 3:34 PM CST (11/15) 4:40 AM CST (11/15)
Length of Visible Light 10h 51m
Length of Day
9h 51m
Waxing Gibbous, 96% of the Moon is Illuminated
Nov 15
Waxing Gibbous
Nov 17
Full
Nov 25
Last Quarter
Dec 2
New
Dec 9
First Quarter

Hourly Weather History & Observations

Time (CST) Temp. Windchill Dew Point Humidity Pressure Visibility Wind Dir Wind Speed Gust Speed Precip Events Conditions
12:15 AM 34.7 °F 28.1 °F 27.5 °F 75% 29.98 in 10.0 mi South 8.1 mph - N/A   Clear
12:35 AM 34.3 °F 27.7 °F 27.9 °F 77% 29.97 in 10.0 mi South 8.1 mph - N/A   Clear
12:55 AM 33.1 °F 26.1 °F 27.5 °F 80% 29.97 in 10.0 mi South 8.1 mph - N/A   Clear
1:15 AM 34.9 °F 27.7 °F 28.4 °F 77% 29.97 in 10.0 mi SSW 9.2 mph - N/A   Clear
1:35 AM 35.4 °F 28.4 °F 27.9 °F 74% 29.97 in 10.0 mi SSW 9.2 mph - N/A   Clear
1:55 AM 35.6 °F 27.5 °F 28.2 °F 75% 29.97 in 10.0 mi SSW 11.5 mph - N/A   Clear
2:15 AM 36.9 °F 30.1 °F 28.9 °F 73% 29.97 in 10.0 mi SSW 9.2 mph - N/A   Clear
2:35 AM 37.4 °F 31.4 °F 28.4 °F 70% 29.97 in 10.0 mi SSW 8.1 mph - N/A   Clear
2:55 AM 36.5 °F 29.2 °F 28.4 °F 72% 29.96 in 10.0 mi SSW 10.4 mph - N/A   Clear
3:15 AM 36.9 °F 30.1 °F 28.4 °F 71% 29.96 in 10.0 mi SSW 9.2 mph - N/A   Clear
3:35 AM 36.5 °F 29.2 °F 28.4 °F 72% 29.96 in 10.0 mi SSW 10.4 mph - N/A   Clear
3:55 AM 35.6 °F 28.0 °F 28.4 °F 75% 29.95 in 10.0 mi SSW 10.4 mph - N/A   Clear
4:15 AM 35.1 °F 27.9 °F 28.2 °F 76% 29.95 in 10.0 mi South 9.2 mph - N/A   Clear
4:35 AM 34.3 °F 27.0 °F 27.7 °F 77% 29.96 in 10.0 mi SSW 9.2 mph - N/A   Clear
4:55 AM 35.4 °F 28.4 °F 28.2 °F 75% 29.96 in 10.0 mi SSW 9.2 mph - N/A   Mostly Cloudy
5:15 AM 36.5 °F 29.2 °F 27.9 °F 71% 29.96 in 10.0 mi SSW 10.4 mph - N/A   Scattered Clouds
5:35 AM 36.5 °F 29.2 °F 28.0 °F 71% 29.96 in 10.0 mi SSW 10.4 mph - N/A   Clear
5:55 AM 35.6 °F 28.6 °F 27.9 °F 73% 29.97 in 10.0 mi SSW 9.2 mph - N/A   Clear
6:15 AM 34.9 °F 28.3 °F 27.9 °F 76% 29.98 in 10.0 mi SW 8.1 mph - N/A   Clear
6:35 AM 35.2 °F 28.8 °F 27.7 °F 74% 29.98 in 10.0 mi SW 8.1 mph - N/A   Mostly Cloudy
6:55 AM 36.5 °F 29.7 °F 28.4 °F 72% 29.98 in 10.0 mi SSW 9.2 mph - N/A   Overcast
7:15 AM 37.6 °F 32.3 °F 28.8 °F 70% 29.98 in 10.0 mi SSW 6.9 mph - N/A   Overcast
7:35 AM 39.6 °F 35.4 °F 30.0 °F 69% 29.98 in 10.0 mi SSW 5.8 mph - N/A   Overcast
7:55 AM 40.3 °F 34.4 °F 29.5 °F 65% 29.98 in 10.0 mi SSW 9.2 mph - N/A   Overcast
8:15 AM 41.0 °F 35.2 °F 29.8 °F 64% 29.99 in 10.0 mi SSW 9.2 mph - N/A   Overcast
8:35 AM 41.7 °F 36.7 °F 29.7 °F 62% 29.98 in 10.0 mi SSW 8.1 mph - N/A   Overcast
8:55 AM 42.3 °F 37.9 °F 29.5 °F 61% 29.98 in 10.0 mi SW 6.9 mph - N/A   Overcast
9:15 AM 43.0 °F 37.2 °F 28.9 °F 58% 29.99 in 10.0 mi SW 10.4 mph - N/A   Overcast
9:35 AM 43.3 °F 38.1 °F 29.5 °F 58% 29.99 in 10.0 mi SW 9.2 mph - N/A   Overcast
9:55 AM 43.7 °F 38.1 °F 29.5 °F 57% 29.99 in 10.0 mi SW 10.4 mph - N/A   Overcast
10:15 AM 44.6 °F 39.2 °F 29.8 °F 56% 29.99 in 10.0 mi SW 10.4 mph - N/A   Overcast
10:35 AM 45.0 °F 39.7 °F 29.8 °F 55% 29.99 in 10.0 mi SW 10.4 mph - N/A   Overcast
10:55 AM 45.1 °F 40.3 °F 29.8 °F 55% 29.99 in 10.0 mi WSW 9.2 mph - N/A   Overcast
11:15 AM 46.4 °F 41.1 °F 30.2 °F 53% 29.98 in 10.0 mi SW 11.5 mph 17.3 mph N/A   Overcast
11:35 AM 46.6 °F - 30.7 °F 54% 29.97 in 10.0 mi SW 10.4 mph - N/A   Overcast
11:55 AM 47.5 °F - 31.1 °F 53% 29.97 in 10.0 mi SW 9.2 mph 16.1 mph N/A   Overcast
12:15 PM 47.8 °F - 31.1 °F 52% 29.97 in 10.0 mi SW 11.5 mph - N/A   Overcast
12:35 PM 47.8 °F - 31.3 °F 53% 29.96 in 10.0 mi SW 12.7 mph - N/A   Overcast
12:55 PM 47.5 °F - 31.3 °F 53% 29.96 in 10.0 mi SSW 10.4 mph - N/A   Mostly Cloudy
1:15 PM 48.4 °F - 31.6 °F 52% 29.96 in 10.0 mi SSW 11.5 mph - N/A   Scattered Clouds
1:35 PM 48.6 °F - 31.3 °F 51% 29.96 in 10.0 mi SSW 15.0 mph - N/A   Overcast
1:55 PM 47.7 °F - 31.8 °F 54% 29.95 in 10.0 mi SSW 15.0 mph - N/A   Mostly Cloudy
2:15 PM 47.3 °F - 32.0 °F 55% 29.94 in 10.0 mi SSW 12.7 mph - N/A   Overcast
2:35 PM 47.7 °F - 32.9 °F 57% 29.94 in 10.0 mi South 10.4 mph - N/A   Overcast
2:55 PM 47.5 °F - 34.3 °F 60% 29.94 in 10.0 mi SSW 11.5 mph - N/A   Overcast
3:15 PM 47.5 °F - 35.2 °F 63% 29.94 in 10.0 mi South 10.4 mph - N/A   Overcast
3:35 PM 47.3 °F - 36.5 °F 66% 29.94 in 10.0 mi South 10.4 mph - N/A   Overcast
3:55 PM 46.8 °F - 36.7 °F 68% 29.95 in 10.0 mi South 9.2 mph - N/A   Overcast
4:15 PM 46.4 °F 41.9 °F 36.7 °F 69% 29.94 in 10.0 mi South 9.2 mph - N/A   Overcast
4:35 PM 46.4 °F 41.9 °F 36.9 °F 69% 29.95 in 10.0 mi South 9.2 mph - N/A   Overcast
4:55 PM 45.5 °F 41.8 °F 37.0 °F 72% 29.96 in 10.0 mi South 6.9 mph - N/A   Overcast
5:15 PM 45.1 °F 41.4 °F 37.4 °F 74% 29.96 in 10.0 mi South 6.9 mph - N/A   Overcast
5:35 PM 45.7 °F 41.0 °F 37.8 °F 74% 29.96 in 10.0 mi South 9.2 mph - N/A   Overcast
5:55 PM 45.7 °F 40.6 °F 37.9 °F 74% 29.95 in 10.0 mi South 10.4 mph - N/A   Overcast
6:15 PM 45.7 °F 40.2 °F 37.8 °F 74% 29.95 in 10.0 mi South 11.5 mph - N/A   Overcast
6:35 PM 44.6 °F 38.8 °F 37.6 °F 76% 29.95 in 10.0 mi South 11.5 mph - N/A   Overcast
6:55 PM 44.6 °F 38.8 °F 37.4 °F 76% 29.95 in 10.0 mi SSE 11.5 mph - N/A   Mostly Cloudy
7:15 PM 42.8 °F 36.6 °F 37.0 °F 80% 29.94 in 10.0 mi SSE 11.5 mph - N/A   Scattered Clouds
7:35 PM 42.8 °F 36.2 °F 36.9 °F 80% 29.94 in 10.0 mi SSE 12.7 mph - N/A   Clear
7:55 PM 42.8 °F 37.0 °F 36.1 °F 77% 29.95 in 10.0 mi SSE 10.4 mph - N/A   Clear
8:15 PM 42.8 °F 37.0 °F 35.4 °F 75% 29.94 in 10.0 mi SSE 10.4 mph - N/A   Clear
8:35 PM 43.3 °F 36.8 °F 35.2 °F 73% 29.93 in 10.0 mi SSE 12.7 mph - N/A   Clear
8:55 PM 43.3 °F 37.2 °F 34.9 °F 72% 29.93 in 10.0 mi SSE 11.5 mph - N/A   Clear
9:15 PM 43.5 °F 36.4 °F 34.9 °F 72% 29.93 in 10.0 mi SSE 15.0 mph - N/A   Clear
9:35 PM 42.8 °F 35.8 °F 34.7 °F 73% 29.92 in 10.0 mi SSE 13.8 mph - N/A   Clear
9:55 PM 41.7 °F 34.8 °F 34.5 °F 76% 29.91 in 10.0 mi SSE 12.7 mph - N/A   Clear
10:15 PM 41.2 °F 34.5 °F 34.3 °F 77% 29.91 in 10.0 mi SSE 11.5 mph - N/A   Clear
10:35 PM 40.6 °F 33.4 °F 34.2 °F 78% 29.91 in 10.0 mi South 12.7 mph - N/A   Clear
10:55 PM 41.0 °F 33.1 °F 34.3 °F 77% 29.92 in 10.0 mi South 15.0 mph 20.7 mph N/A   Clear
11:15 PM 39.6 °F 32.1 °F 34.2 °F 81% 29.93 in 10.0 mi South 12.7 mph - N/A   Clear
11:35 PM 38.8 °F 32.1 °F 34.2 °F 83% 29.92 in 10.0 mi South 10.4 mph - N/A   Clear
11:55 PM 39.2 °F 32.5 °F 35.1 °F 85% 29.92 in 10.0 mi South 10.4 mph - N/A   Clear